Regional Weather Roundup
Issued by NWS

Home | Current Version | Previous Version | Text Only | Print | Product List | Glossary On
Versions: 1 2 3 4 5 6 7 8 9 10 11 12 13 14 15 16 17 18 19 20 21 22 23 24 25 26 27
000
ASUS44 KJAN 270710
RWRMS

MISSISSIPPI HOURLY WEATHER ROUNDUP
NATIONAL WEATHER SERVICE JACKSON MS
200 AM CDT MON MAR 27 2017

NOTE: "FAIR: INDICATES FEW OR NO CLOUDS BELOW 12,000 FEET WITH NO
SIGNIFICANT WEATHER AND/OR OBSTRUCTIONS TO VISIBILITY.

MSZ001>002-007>008-010>013-018>021-025>028-034>036-270800-
NORTHWEST MISSISSIPPI

CITY           SKY/WX    TMP DP  RH WIND       PRES   REMARKS
GREENWOOD      MOCLDY    68  62  81 S10       29.94R
GREENVILLE     MOCLDY    68  62  81 S12       29.91S
OXFORD         FAIR      63  54  72 S5        29.95S
WINONA         FAIR      64  60  88 CALM      29.95S
$$

MSZ003>006-009-014>017-022>024-029>033-037>039-270800-
NORTHEAST MISSISSIPPI

CITY           SKY/WX    TMP DP  RH WIND       PRES   REMARKS
COLUMBUS AFB   CLOUDY    65  60  81 S7        29.96S
GOLDN TRIANGLE CLOUDY   N/A N/A N/A S7        29.93S
STARKVILLE     FAIR      64  61  88 S7        29.98S
TUPELO         MOCLDY    59  55  87 S3        29.95S
$$

MSZ040-058-270800-
CENTRAL MISSISSIPPI

CITY           SKY/WX    TMP DP  RH WIND       PRES   REMARKS
JACKSON INTL   CLOUDY    69  63  81 S9        29.96S
JACKSON HAWKNS PTCLDY    67  63  87 S7        29.97R
MADISON        FAIR      68  63  83 S6        29.97R
MERIDIAN KEY   CLOUDY    68  66  93 S8        29.99S
MERIDIAN NAS   CLOUDY    68  62  81 SE5       29.99S
RAYMOND        PTSUNNY   70  64  83 S9        29.96R
$$

MSZ059>079-270800-
SOUTH MISSISSIPPI

CITY           SKY/WX    TMP DP  RH WIND       PRES   REMARKS
BROOKHAVEN     PTSUNNY   70  66  88 S5        29.99S
HATTIESBURG    MOCLDY    69  66  90 S7        29.99S
MCCOMB         MOCLDY    69  65  86 S14       29.97R
NATCHEZ        PTCLDY    66  61  82 SE7       29.95F
PINE BELT      MOCLDY    68  63  83 S7        30.00S
$$

MSZ080>082-270800-
COASTAL MISSISSIPPI

CITY           SKY/WX    TMP DP  RH WIND       PRES   REMARKS
BILOXI         CLOUDY    72  69  92 S12G21    29.98F
PASCAGOULA     MOCLDY    71  67  87 S8        29.99S
GULFPORT       CLOUDY    72  70  93 S9        29.98S
$$

LAZ007>009-015>016-023>026-270800-
NORTHEAST LOUISIANA

CITY           SKY/WX    TMP DP  RH WIND       PRES   REMARKS
BASTROP        FAIR      69  66  91 S6        29.92S
TALLULAH/VBURG CLOUDY    67  63  87 S5        29.95S
$$




USA.gov is the U.S. government's official web portal to all federal, state and local government web resources and services.